| time (UTC) | temp F | wind direction | speed MPH | gust MPH | rain 1hr in | rain 24hr in | rain mn in | humidity % | barometer mb |
| 20260510222946 | 83 | 210 | 4.0 | 9.0 | 0.00 | 0.00 | 0.00 | 32 | 1006.8 |
| 20260510222520 | 83 | 224 | 3.0 | 7.0 | 0.00 | 0.00 | 0.00 | 33 | 1006.8 |
| 20260510221627 | 83 | 185 | 3.0 | 8.0 | 0.00 | 0.00 | 0.00 | 33 | 1006.8 |
| 20260510220947 | 83 | 211 | 4.0 | 9.0 | 0.00 | 0.00 | 0.00 | 34 | 1006.8 |
| 20260510220517 | 84 | 182 | 2.0 | 10.0 | 0.00 | 0.00 | 0.00 | 32 | 1006.8 |
| 20260510215626 | 83 | 204 | 5.0 | 10.0 | 0.00 | 0.00 | 0.00 | 33 | 1006.8 |
| 20260510214946 | 84 | 239 | 4.0 | 10.0 | 0.00 | 0.00 | 0.00 | 32 | 1006.8 |
| 20260510214306 | 84 | 229 | 4.0 | 10.0 | 0.00 | 0.00 | 0.00 | 31 | 1006.8 |
| 20260510213626 | 84 | 190 | 3.0 | 10.0 | 0.00 | 0.00 | 0.00 | 32 | 1006.4 |
| 20260510212946 | 84 | 220 | 3.0 | 6.0 | 0.00 | 0.00 | 0.00 | 32 | 1006.4 |
| 20260510212306 | 85 | 195 | 3.0 | 6.0 | 0.00 | 0.00 | 0.00 | 31 | 1006.4 |
| 20260510211836 | 84 | 176 | 2.0 | 7.0 | 0.00 | 0.00 | 0.00 | 33 | 1006.4 |
| 20260510210946 | 84 | 217 | 2.0 | 10.0 | 0.00 | 0.00 | 0.00 | 32 | 1006.4 |
| 20260510210306 | 83 | 236 | 2.0 | 10.0 | 0.00 | 0.00 | 0.00 | 34 | 1006.4 |
| 20260510205626 | 85 | 308 | 2.0 | 8.0 | 0.00 | 0.00 | 0.00 | 31 | 1006.4 |
| 20260510205159 | 84 | 227 | 3.0 | 10.0 | 0.00 | 0.00 | 0.00 | 31 | 1006.4 |
| 20260510204306 | 84 | 182 | 4.0 | 11.0 | 0.00 | 0.00 | 0.00 | 33 | 1006.4 |
| 20260510203626 | 86 | 245 | 2.0 | 5.0 | 0.00 | 0.00 | 0.00 | 33 | 1006.4 |
| 20260510202946 | 84 | 304 | 1.0 | 5.0 | 0.00 | 0.00 | 0.00 | 35 | 1006.4 |
| 20260510202306 | 82 | 201 | 2.0 | 9.0 | 0.00 | 0.00 | 0.00 | 36 | 1006.4 |
| 20260510201627 | 82 | 201 | 4.0 | 10.0 | 0.00 | 0.00 | 0.00 | 36 | 1006.8 |
| 20260510200946 | 84 | 220 | 3.0 | 10.0 | 0.00 | 0.00 | 0.00 | 36 | 1006.8 |
| 20260510200306 | 85 | 314 | 4.0 | 7.0 | 0.00 | 0.00 | 0.00 | 32 | 1006.8 |
| 20260510195626 | 83 | 122 | 3.0 | 8.0 | 0.00 | 0.00 | 0.00 | 33 | 1006.8 |
| 20260510194946 | 84 | 193 | 2.0 | 5.0 | 0.00 | 0.00 | 0.00 | 32 | 1006.8 |
| 20260510194306 | 85 | 357 | 2.0 | 4.0 | 0.00 | 0.00 | 0.00 | 35 | 1006.8 |
| 20260510193626 | 84 | 302 | 2.0 | 4.0 | 0.00 | 0.00 | 0.00 | 36 | 1006.8 |
| 20260510192946 | 84 | 282 | 1.0 | 6.0 | 0.00 | 0.00 | 0.00 | 38 | 1006.8 |
| 20260510192517 | 82 | 192 | 2.0 | 6.0 | 0.00 | 0.00 | 0.00 | 41 | 1006.8 |
| 20260510191837 | 82 | 340 | 2.0 | 6.0 | 0.00 | 0.00 | 0.00 | 41 | 1007.1 |
| 20260510190946 | 82 | 237 | 3.0 | 7.0 | 0.00 | 0.00 | 0.00 | 39 | 1007.1 |
| 20260510190306 | 84 | 208 | 3.0 | 7.0 | 0.00 | 0.00 | 0.00 | 39 | 1007.1 |
| 20260510185627 | 84 | 326 | 2.0 | 7.0 | 0.00 | 0.00 | 0.00 | 38 | 1007.1 |
| 20260510184946 | 84 | 256 | 2.0 | 12.0 | 0.00 | 0.00 | 0.00 | 38 | 1007.5 |
| 20260510184306 | 83 | 198 | 4.0 | 12.0 | 0.00 | 0.00 | 0.00 | 39 | 1007.1 |
| 20260510183626 | 84 | 257 | 3.0 | 6.0 | 0.00 | 0.00 | 0.00 | 38 | 1007.5 |
| 20260510182946 | 82 | 257 | 2.0 | 6.0 | 0.00 | 0.00 | 0.00 | 41 | 1007.5 |
| 20260510182306 | 82 | 82 | 2.0 | 5.0 | 0.00 | 0.00 | 0.00 | 43 | 1007.5 |
| 20260510181626 | 82 | 98 | 3.0 | 5.0 | 0.00 | 0.00 | 0.00 | 40 | 1007.5 |
| 20260510180946 | 82 | 108 | 1.0 | 6.0 | 0.00 | 0.00 | 0.00 | 40 | 1007.8 |
| 20260510180306 | 84 | 313 | 1.0 | 5.0 | 0.00 | 0.00 | 0.00 | 39 | 1007.5 |
| 20260510175626 | 82 | 298 | 2.0 | 5.0 | 0.00 | 0.00 | 0.00 | 41 | 1007.8 |
| 20260510174947 | 82 | 322 | 2.0 | 7.0 | 0.00 | 0.00 | 0.00 | 42 | 1007.8 |
| 20260510174307 | 83 | 271 | 3.0 | 6.0 | 0.00 | 0.00 | 0.00 | 41 | 1007.5 |
| 20260510173626 | 82 | 298 | 3.0 | 6.0 | 0.00 | 0.00 | 0.00 | 42 | 1007.5 |
| 20260510172946 | 83 | 273 | 2.0 | 4.0 | 0.00 | 0.00 | 0.00 | 41 | 1007.5 |
| 20260510172518 | 83 | 201 | 1.0 | 9.0 | 0.00 | 0.00 | 0.00 | 41 | 1007.8 |
| 20260510171626 | 84 | 206 | 3.0 | 7.0 | 0.00 | 0.00 | 0.00 | 42 | 1007.8 |
| 20260510170946 | 83 | 187 | 2.0 | 5.0 | 0.00 | 0.00 | 0.00 | 42 | 1007.8 |
| 20260510170520 | 82 | 90 | 3.0 | 6.0 | 0.00 | 0.00 | 0.00 | 41 | 1007.8 |
| 20260510165626 | 82 | 186 | 3.0 | 6.0 | 0.00 | 0.00 | 0.00 | 43 | 1007.8 |
| 20260510164946 | 83 | 203 | 4.0 | 6.0 | 0.00 | 0.00 | 0.00 | 41 | 1007.8 |
| 20260510164306 | 82 | 187 | 2.0 | 5.0 | 0.00 | 0.00 | 0.00 | 43 | 1007.8 |
| 20260510163627 | 83 | 302 | 1.0 | 7.0 | 0.00 | 0.00 | 0.00 | 42 | 1007.8 |
| 20260510162947 | 82 | 318 | 3.0 | 7.0 | 0.00 | 0.00 | 0.00 | 43 | 1007.8 |
| 20260510162306 | 81 | 314 | 2.0 | 7.0 | 0.00 | 0.00 | 0.00 | 43 | 1007.8 |
| 20260510161840 | 81 | 342 | 3.0 | 7.0 | 0.00 | 0.00 | 0.00 | 44 | 1008.1 |
| 20260510160946 | 82 | 344 | 3.0 | 7.0 | 0.00 | 0.00 | 0.00 | 44 | 1008.1 |
| 20260510160306 | 82 | 149 | 1.0 | 7.0 | 0.00 | 0.00 | 0.00 | 46 | 1008.1 |
| 20260510155626 | 82 | 229 | 1.0 | 4.0 | 0.00 | 0.00 | 0.00 | 45 | 1008.1 |
| 20260510154946 | 80 | 92 | 3.0 | 6.0 | 0.00 | 0.00 | 0.00 | 48 | 1008.1 |
| 20260510154306 | 79 | 295 | 2.0 | 6.0 | 0.00 | 0.00 | 0.00 | 48 | 1008.5 |
| 20260510153627 | 80 | 327 | 4.0 | 6.0 | 0.00 | 0.00 | 0.00 | 46 | 1008.5 |
| 20260510152946 | 79 | 62 | 1.0 | 6.0 | 0.00 | 0.00 | 0.00 | 53 | 1008.1 |
| 20260510152307 | 79 | 208 | 3.0 | 6.0 | 0.00 | 0.00 | 0.00 | 55 | 1008.1 |
| 20260510151626 | 78 | 177 | 2.0 | 6.0 | 0.00 | 0.00 | 0.00 | 56 | 1008.1 |
| 20260510150946 | 79 | 131 | 2.0 | 4.0 | 0.00 | 0.00 | 0.00 | 53 | 1008.1 |
| 20260510150306 | 78 | 196 | 2.0 | 5.0 | 0.00 | 0.00 | 0.00 | 56 | 1008.5 |
| 20260510145626 | 78 | 49 | 2.0 | 4.0 | 0.00 | 0.00 | 0.00 | 56 | 1008.1 |
| 20260510145158 | 76 | 348 | 2.0 | 6.0 | 0.00 | 0.00 | 0.00 | 58 | 1008.1 |
| 20260510144306 | 76 | 41 | 2.0 | 7.0 | 0.00 | 0.00 | 0.00 | 60 | 1008.1 |
| 20260510143626 | 76 | 306 | 3.0 | 5.0 | 0.00 | 0.00 | 0.00 | 61 | 1008.1 |
| 20260510142946 | 76 | 15 | 1.0 | 7.0 | 0.00 | 0.00 | 0.00 | 61 | 1008.1 |
| 20260510142306 | 75 | 266 | 2.0 | 6.0 | 0.00 | 0.00 | 0.00 | 64 | 1008.1 |
| 20260510141627 | 76 | 180 | 2.0 | 5.0 | 0.00 | 0.00 | 0.00 | 62 | 1008.1 |
| 20260510140946 | 75 | 187 | 1.0 | 6.0 | 0.00 | 0.00 | 0.00 | 63 | 1008.1 |
| 20260510140306 | 74 | 226 | 2.0 | 9.0 | 0.00 | 0.00 | 0.00 | 65 | 1008.1 |
| 20260510135626 | 74 | 327 | 4.0 | 9.0 | 0.00 | 0.00 | 0.00 | 66 | 1008.1 |
| 20260510134946 | 73 | 199 | 3.0 | 6.0 | 0.00 | 0.00 | 0.00 | 70 | 1008.1 |
| 20260510134306 | 73 | 311 | 1.0 | 5.0 | 0.00 | 0.00 | 0.00 | 70 | 1008.1 |
| 20260510133626 | 71 | 265 | 1.0 | 7.0 | 0.00 | 0.00 | 0.00 | 74 | 1008.1 |
| 20260510132947 | 71 | 19 | 1.0 | 4.0 | 0.00 | 0.00 | 0.00 | 75 | 1007.8 |
| 20260510132306 | 70 | 178 | 2.0 | 6.0 | 0.00 | 0.00 | 0.00 | 79 | 1008.1 |
| 20260510131627 | 69 | 169 | 2.0 | 6.0 | 0.00 | 0.00 | 0.00 | 80 | 1008.1 |
| 20260510131157 | 69 | 200 | 3.0 | 5.0 | 0.00 | 0.00 | 0.00 | 81 | 1008.1 |
| 20260510130518 | 69 | 129 | 2.0 | 5.0 | 0.00 | 0.00 | 0.00 | 82 | 1008.1 |
| 20260510125627 | 68 | 182 | 2.0 | 5.0 | 0.00 | 0.00 | 0.00 | 83 | 1007.8 |
| 20260510124946 | 68 | 187 | 2.0 | 5.0 | 0.00 | 0.00 | 0.00 | 83 | 1007.8 |
| 20260510124520 | 67 | 200 | 2.0 | 5.0 | 0.00 | 0.00 | 0.00 | 87 | 1007.8 |
| 20260510123626 | 66 | 199 | 2.0 | 4.0 | 0.00 | 0.00 | 0.00 | 88 | 1007.8 |
| 20260510122946 | 65 | 170 | 2.0 | 5.0 | 0.00 | 0.00 | 0.00 | 89 | 1007.8 |
| 20260510122307 | 65 | 187 | 3.0 | 5.0 | 0.00 | 0.00 | 0.00 | 90 | 1007.8 |
| 20260510121626 | 64 | 227 | 2.0 | 5.0 | 0.00 | 0.00 | 0.00 | 91 | 1007.8 |
| 20260510120946 | 63 | 175 | 2.0 | 3.0 | 0.00 | 0.00 | 0.00 | 94 | 1007.8 |
| 20260510120518 | 63 | 188 | 2.0 | 3.0 | 0.00 | 0.00 | 0.00 | 95 | 1007.8 |
| 20260510115626 | 63 | 181 | 1.0 | 2.0 | 0.00 | 0.00 | 0.00 | 96 | 1007.5 |
| 20260510114946 | 62 | 81 | 1.0 | 2.0 | 0.00 | 0.00 | 0.00 | 96 | 1007.5 |
| 20260510114306 | 62 | 107 | 1.0 | 2.0 | 0.00 | 0.00 | 0.00 | 96 | 1007.5 |
| 20260510113836 | 62 | 193 | 1.0 | 1.0 | 0.00 | 0.00 | 0.00 | 98 | 1007.5 |
| 20260510112946 | 62 | 198 | 1.0 | 1.0 | 0.00 | 0.00 | 0.00 | 98 | 1007.1 |
| 20260510112307 | 61 | 99 | 0.0 | 1.0 | 0.00 | 0.00 | 0.00 | 100 | 1007.1 |
| 20260510111626 | 61 | 352 | 0.0 | 1.0 | 0.00 | 0.00 | 0.00 | 100 | 1007.1 |
| 20260510111158 | 61 | 265 | 0.0 | 1.0 | 0.00 | 0.00 | 0.00 | 100 | 1007.1 |
| 20260510110306 | 60 | 152 | 0.0 | 1.0 | 0.00 | 0.00 | 0.00 | 100 | 1007.1 |
| 20260510105840 | 60 | 201 | 1.0 | 2.0 | 0.00 | 0.00 | 0.00 | 100 | 1007.1 |
| 20260510104946 | 60 | 180 | 1.0 | 2.0 | 0.00 | 0.00 | 0.00 | 100 | 1006.8 |
| 20260510104306 | 60 | 79 | 1.0 | 2.0 | 0.00 | 0.00 | 0.00 | 100 | 1006.8 |
| 20260510103626 | 60 | 128 | 1.0 | 2.0 | 0.00 | 0.00 | 0.00 | 100 | 1006.4 |
| 20260510102946 | 60 | 109 | 1.0 | 2.0 | 0.00 | 0.00 | 0.00 | 100 | 1006.4 |
| 20260510102306 | 60 | 271 | 0.0 | 1.0 | 0.00 | 0.00 | 0.00 | 100 | 1006.4 |
| 20260510101627 | 60 | 137 | 1.0 | 2.0 | 0.00 | 0.00 | 0.00 | 99 | 1006.1 |
| 20260510100946 | 60 | 82 | 1.0 | 2.0 | 0.00 | 0.00 | 0.00 | 99 | 1006.1 |
| 20260510100306 | 60 | 128 | 1.0 | 2.0 | 0.00 | 0.00 | 0.00 | 99 | 1006.1 |
| 20260510095626 | 61 | 129 | 1.0 | 2.0 | 0.00 | 0.00 | 0.00 | 99 | 1006.1 |
| 20260510094947 | 61 | 144 | 1.0 | 2.0 | 0.00 | 0.00 | 0.00 | 99 | 1005.8 |
| 20260510094306 | 60 | 176 | 1.0 | 2.0 | 0.00 | 0.00 | 0.00 | 100 | 1005.8 |
| 20260510093627 | 61 | 189 | 1.0 | 2.0 | 0.00 | 0.00 | 0.00 | 100 | 1005.8 |
| 20260510092946 | 60 | 189 | 1.0 | 2.0 | 0.00 | 0.00 | 0.00 | 99 | 1005.8 |
| 20260510092307 | 60 | 145 | 1.0 | 2.0 | 0.00 | 0.00 | 0.00 | 99 | 1005.8 |
| 20260510091626 | 60 | 163 | 1.0 | 3.0 | 0.00 | 0.00 | 0.00 | 99 | 1005.8 |
| 20260510090946 | 60 | 152 | 1.0 | 3.0 | 0.00 | 0.00 | 0.00 | 99 | 1005.8 |
| 20260510090306 | 60 | 176 | 1.0 | 2.0 | 0.00 | 0.00 | 0.00 | 99 | 1005.4 |
| 20260510085626 | 60 | 167 | 1.0 | 3.0 | 0.00 | 0.00 | 0.00 | 100 | 1005.4 |
| 20260510085156 | 60 | 134 | 1.0 | 3.0 | 0.00 | 0.00 | 0.00 | 100 | 1005.4 |
| 20260510084306 | 60 | 152 | 1.0 | 3.0 | 0.00 | 0.00 | 0.00 | 99 | 1005.1 |
| 20260510083626 | 60 | 144 | 1.0 | 2.0 | 0.00 | 0.00 | 0.00 | 99 | 1005.1 |
| 20260510082946 | 61 | 135 | 1.0 | 2.0 | 0.00 | 0.00 | 0.00 | 97 | 1005.1 |
| 20260510082307 | 61 | 144 | 1.0 | 2.0 | 0.00 | 0.00 | 0.00 | 99 | 1005.1 |
| 20260510081627 | 61 | 135 | 1.0 | 3.0 | 0.00 | 0.00 | 0.00 | 98 | 1005.1 |
| 20260510080946 | 60 | 127 | 1.0 | 2.0 | 0.00 | 0.00 | 0.00 | 97 | 1005.1 |
| 20260510080306 | 61 | 169 | 1.0 | 2.0 | 0.00 | 0.00 | 0.00 | 97 | 1005.1 |
| 20260510075626 | 61 | 119 | 1.0 | 2.0 | 0.00 | 0.00 | 0.00 | 94 | 1005.1 |
| 20260510075157 | 62 | 190 | 1.0 | 4.0 | 0.00 | 0.00 | 0.00 | 94 | 1005.1 |
| 20260510074306 | 62 | 274 | 2.0 | 4.0 | 0.00 | 0.00 | 0.00 | 96 | 1005.1 |
| 20260510073838 | 62 | 310 | 1.0 | 2.0 | 0.00 | 0.00 | 0.00 | 96 | 1005.1 |
| 20260510072946 | 62 | 294 | 1.0 | 2.0 | 0.00 | 0.00 | 0.00 | 96 | 1004.7 |
| 20260510072306 | 62 | 177 | 1.0 | 3.0 | 0.00 | 0.00 | 0.00 | 96 | 1005.1 |
| 20260510071626 | 62 | 205 | 1.0 | 2.0 | 0.00 | 0.00 | 0.00 | 97 | 1005.1 |
| 20260510070946 | 62 | 192 | 1.0 | 2.0 | 0.00 | 0.00 | 0.00 | 98 | 1005.1 |
| 20260510070307 | 62 | 200 | 1.0 | 2.0 | 0.00 | 0.00 | 0.00 | 100 | 1005.1 |
| 20260510065626 | 61 | 185 | 1.0 | 2.0 | 0.00 | 0.00 | 0.00 | 100 | 1005.1 |
| 20260510064946 | 61 | 183 | 1.0 | 3.0 | 0.00 | 0.00 | 0.00 | 100 | 1005.1 |
| 20260510064306 | 61 | 174 | 1.0 | 2.0 | 0.00 | 0.00 | 0.00 | 100 | 1005.1 |
| 20260510063626 | 60 | 107 | 1.0 | 2.0 | 0.00 | 0.00 | 0.00 | 100 | 1005.1 |
| 20260510062946 | 61 | 172 | 1.0 | 2.0 | 0.00 | 0.00 | 0.00 | 100 | 1005.1 |
| 20260510062307 | 60 | 175 | 1.0 | 2.0 | 0.00 | 0.00 | 0.00 | 100 | 1005.1 |
| 20260510061626 | 61 | 111 | 1.0 | 1.0 | 0.00 | 0.00 | 0.00 | 98 | 1004.7 |
| 20260510060946 | 61 | 141 | 1.0 | 1.0 | 0.00 | 0.00 | 0.00 | 98 | 1004.7 |
| 20260510060517 | 61 | 154 | 1.0 | 2.0 | 0.00 | 0.00 | 0.00 | 99 | 1004.7 |
| 20260510055626 | 61 | 207 | 1.0 | 2.0 | 0.00 | 0.00 | 0.00 | 100 | 1005.1 |
| 20260510055158 | 61 | 323 | 1.0 | 2.0 | 0.00 | 0.00 | 0.00 | 99 | 1005.1 |
| 20260510054306 | 62 | 87 | 0.0 | 1.0 | 0.00 | 0.00 | 0.00 | 98 | 1005.1 |
| 20260510053626 | 62 | 169 | 1.0 | 2.0 | 0.00 | 0.00 | 0.00 | 99 | 1005.1 |
| 20260510052947 | 62 | 13 | 1.0 | 2.0 | 0.00 | 0.00 | 0.00 | 98 | 1005.1 |
| 20260510052516 | 62 | 18 | 0.0 | 1.0 | 0.00 | 0.00 | 0.00 | 98 | 1005.4 |
| 20260510051626 | 62 | 241 | 0.0 | 1.0 | 0.00 | 0.00 | 0.00 | 96 | 1005.4 |
| 20260510050946 | 63 | 244 | 0.0 | 2.0 | 0.00 | 0.00 | 0.00 | 97 | 1005.4 |
| 20260510050518 | 63 | 269 | 1.0 | 2.0 | 0.00 | 0.00 | 0.00 | 97 | 1005.4 |
| 20260510045838 | 63 | 186 | 1.0 | 2.0 | 0.00 | 0.00 | 0.00 | 98 | 1005.8 |
| 20260510044946 | 63 | 181 | 1.0 | 2.0 | 0.00 | 0.00 | 0.00 | 96 | 1005.4 |
| 20260510044307 | 63 | 172 | 1.0 | 2.0 | 0.00 | 0.00 | 0.00 | 98 | 1005.4 |
| 20260510043626 | 63 | 184 | 2.0 | 3.0 | 0.00 | 0.00 | 0.00 | 98 | 1005.8 |
| 20260510042947 | 63 | 190 | 2.0 | 3.0 | 0.00 | 0.00 | 0.00 | 100 | 1005.4 |
| 20260510042307 | 63 | 160 | 1.0 | 3.0 | 0.00 | 0.00 | 0.00 | 99 | 1005.4 |
| 20260510041626 | 63 | 135 | 1.0 | 2.0 | 0.00 | 0.00 | 0.00 | 96 | 1005.4 |
| 20260510040946 | 63 | 175 | 1.0 | 2.0 | 0.00 | 0.00 | 0.00 | 98 | 1005.4 |
| 20260510040306 | 64 | 189 | 2.0 | 2.0 | 0.00 | 0.00 | 0.00 | 98 | 1005.4 |
| 20260510035626 | 63 | 213 | 1.0 | 2.0 | 0.00 | 0.00 | 0.02 | 99 | 1005.1 |
| 20260510034946 | 63 | 157 | 1.0 | 2.0 | 0.00 | 0.00 | 0.02 | 96 | 1005.1 |
| 20260510034307 | 63 | 175 | 1.0 | 2.0 | 0.00 | 0.00 | 0.02 | 97 | 1005.1 |
| 20260510033626 | 64 | 125 | 0.0 | 2.0 | 0.00 | 0.00 | 0.02 | 95 | 1005.1 |
| 20260510032946 | 64 | 171 | 1.0 | 2.0 | 0.00 | 0.00 | 0.02 | 96 | 1005.1 |
| 20260510032306 | 64 | 157 | 1.0 | 3.0 | 0.00 | 0.00 | 0.02 | 95 | 1005.1 |
| 20260510031626 | 64 | 159 | 1.0 | 2.0 | 0.00 | 0.00 | 0.02 | 95 | 1005.1 |
| 20260510030946 | 64 | 166 | 1.0 | 2.0 | 0.00 | 0.00 | 0.02 | 96 | 1005.1 |
| 20260510030519 | 64 | 172 | 1.0 | 2.0 | 0.00 | 0.00 | 0.02 | 97 | 1005.1 |
| 20260510025626 | 64 | 162 | 1.0 | 2.0 | 0.00 | 0.00 | 0.02 | 98 | 1005.1 |
| 20260510024946 | 64 | 168 | 1.0 | 2.0 | 0.00 | 0.00 | 0.02 | 99 | 1005.1 |
| 20260510024306 | 64 | 178 | 1.0 | 2.0 | 0.00 | 0.00 | 0.02 | 98 | 1004.7 |
| 20260510023836 | 64 | 170 | 0.0 | 1.0 | 0.00 | 0.00 | 0.02 | 98 | 1004.7 |
| 20260510022946 | 64 | 3 | 1.0 | 1.0 | 0.00 | 0.00 | 0.02 | 98 | 1004.7 |
| 20260510022307 | 64 | 186 | 1.0 | 1.0 | 0.00 | 0.00 | 0.02 | 99 | 1004.7 |
| 20260510021626 | 64 | 234 | 0.0 | 1.0 | 0.00 | 0.00 | 0.02 | 98 | 1004.7 |
| 20260510020946 | 64 | 148 | 1.0 | 2.0 | 0.00 | 0.00 | 0.02 | 98 | 1004.4 |
| 20260510020306 | 64 | 169 | 1.0 | 2.0 | 0.00 | 0.00 | 0.02 | 98 | 1004.4 |
| 20260510015627 | 64 | 176 | 1.0 | 2.0 | 0.00 | 0.00 | 0.02 | 98 | 1004.7 |
| 20260510014946 | 64 | 183 | 1.0 | 2.0 | 0.00 | 0.00 | 0.02 | 96 | 1004.7 |
| 20260510014306 | 64 | 185 | 1.0 | 2.0 | 0.00 | 0.00 | 0.02 | 97 | 1004.4 |
| 20260510013626 | 65 | 6 | 0.0 | 1.0 | 0.00 | 0.00 | 0.02 | 96 | 1004.4 |
| 20260510012946 | 65 | 156 | 0.0 | 1.0 | 0.00 | 0.00 | 0.02 | 95 | 1004.4 |
| 20260510012307 | 65 | 145 | 1.0 | 1.0 | 0.00 | 0.00 | 0.02 | 95 | 1004.1 |
| 20260510011839 | 65 | 68 | 1.0 | 1.0 | 0.00 | 0.00 | 0.02 | 94 | 1004.1 |
| 20260510010946 | 66 | 30 | 1.0 | 1.0 | 0.00 | 0.00 | 0.02 | 94 | 1004.1 |
| 20260510010306 | 66 | 170 | 1.0 | 1.0 | 0.00 | 0.00 | 0.02 | 94 | 1004.4 |
| 20260510005627 | 66 | 90 | 0.0 | 1.0 | 0.00 | 0.00 | 0.02 | 92 | 1004.1 |
| 20260510004947 | 66 | 129 | 0.0 | 1.0 | 0.00 | 0.00 | 0.02 | 90 | 1004.1 |
| 20260510004306 | 67 | 66 | 0.0 | 2.0 | 0.00 | 0.00 | 0.02 | 89 | 1004.1 |
| 20260510003626 | 67 | 97 | 1.0 | 2.0 | 0.00 | 0.00 | 0.02 | 88 | 1003.7 |
| 20260510002946 | 68 | 146 | 0.0 | 1.0 | 0.00 | 0.00 | 0.02 | 86 | 1004.1 |
| 20260510002307 | 68 | 355 | 0.0 | 1.0 | 0.00 | 0.00 | 0.02 | 86 | 1004.1 |
| 20260510001840 | 68 | 66 | 0.0 | 2.0 | 0.00 | 0.00 | 0.02 | 85 | 1004.1 |
| 20260510000946 | 69 | 112 | 1.0 | 2.0 | 0.00 | 0.00 | 0.02 | 84 | 1004.1 |
| 20260510000307 | 70 | 27 | 0.0 | 2.0 | 0.00 | 0.00 | 0.02 | 82 | 1003.7 |
| 20260509235626 | 70 | 24 | 1.0 | 2.0 | 0.00 | 0.00 | 0.02 | 80 | 1003.7 |
| 20260509234947 | 71 | 239 | 0.0 | 2.0 | 0.00 | 0.00 | 0.02 | 79 | 1003.7 |
| 20260509234307 | 71 | 116 | 1.0 | 2.0 | 0.00 | 0.00 | 0.02 | 77 | 1003.7 |
| 20260509233626 | 72 | 101 | 1.0 | 2.0 | 0.00 | 0.00 | 0.02 | 74 | 1003.4 |
| 20260509232947 | 72 | 115 | 1.0 | 2.0 | 0.00 | 0.00 | 0.02 | 72 | 1003.4 |
| 20260509232307 | 73 | 116 | 1.0 | 2.0 | 0.00 | 0.00 | 0.02 | 71 | 1003.4 |
| 20260509231626 | 73 | 197 | 1.0 | 3.0 | 0.00 | 0.00 | 0.02 | 71 | 1003.4 |
| 20260509231201 | 73 | 187 | 1.0 | 4.0 | 0.00 | 0.00 | 0.02 | 70 | 1003.4 |
| 20260509230306 | 73 | 186 | 1.0 | 4.0 | 0.00 | 0.00 | 0.02 | 70 | 1003.4 |
| 20260509225626 | 74 | 200 | 3.0 | 4.0 | 0.00 | 0.00 | 0.02 | 69 | 1003.0 |
| 20260509224946 | 74 | 202 | 2.0 | 3.0 | 0.00 | 0.00 | 0.02 | 68 | 1003.0 |
| 20260509224306 | 74 | 216 | 1.0 | 4.0 | 0.00 | 0.00 | 0.02 | 67 | 1003.0 |
| 20260509223626 | 73 | 183 | 2.0 | 5.0 | 0.00 | 0.00 | 0.02 | 68 | 1003.0 |
| 20260509223200 | 73 | 196 | 3.0 | 5.0 | 0.00 | 0.00 | 0.02 | 68 | 1003.0 |